Notices

What's New in latest Release from April 7th, 2021:

- Updated Glossary, including Speed of Maximum Gust, and Total Hourly Precipitation

- Updated national and regional climate services offices contacts and prices information

- Addition of station inventory lists for 1981-2010, 1971-2000, and 1961-1990 Normals.

If you haven't already, please take our survey and provide feedback about our website: https://eccc.sondage-survey.ca/f/LanguageSelection.aspx?s=442ca660-fcf1-47c0-95a9-59707d6fd709

Hourly Data Report for April 26, 2017

KENORA A
ONTARIO

49°47'18.000" N
94°21'47.000" W
409.70 m
6034076
71850
YQK

Download Data

Hourly Data (April 2017)
Hourly Data Report for April 26, 2017
TIME
LST
Temp Definition
°C
Dew Point Definition
°C
Rel Hum Definition
%
Precip. Amount Definition
mm

Wind Dir Definition
10's deg

Wind Spd Definition
km/h
Visibility Definition
km
Stn Press Definition
kPa
Hmdx Definition


Wind Chill Definition


Weather Definition


00:00 -3.6 -6.9 78   6 22 24.1 96.62   -10 Cloudy
01:00 -4.0 -6.8 81   6 24 24.1 96.58   -11 LegendNANA
02:00 -4.8 -7.9 79   6 27 24.1 96.54   -12 LegendNANA
03:00 -5.3 -8.1 81   5 31 24.1 96.48   -14 Cloudy
04:00 -5.5 -8.3 81   6 32 24.1 96.48   -14 LegendNANA
05:00 -5.8 -8.4 82   6 29 24.1 96.47   -14 Blowing Snow
06:00 -5.8 -8.6 81   6 23 24.1 96.45   -13 Blowing Snow
07:00 -5.4 -8.3 80   6 22 24.1 96.44   -12 LegendNANA
08:00 -4.9 -8.2 78   5 31 24.1 96.40   -13 LegendNANA
09:00 -4.5 -7.8 78   4 29 24.1 96.40   -12 Blowing Snow
10:00 -3.9 -8.1 73   5 32 24.1 96.35   -12 Blowing Snow
11:00 -3.0 -7.5 71   6 26 24.1 96.32   -10 Blowing Snow
12:00 -2.4 -7.5 68   5 28 24.1 96.25   -9 Blowing Snow
13:00 -1.5 -7.7 63   5 35 24.1 96.17   -9 Blowing Snow
14:00 -1.4 -7.6 63   5 32 24.1 96.14   -9 Blowing Snow
15:00 -0.9 -7.1 63   5 30 24.1 96.08   -8 Blowing Snow
16:00 -0.8 -7.0 63   4 28 24.1 96.10   -7 Snow Showers,Blowing Snow
17:00 -1.1 -7.3 63   6 25 24.1 96.11   -7 Snow Showers,Blowing Snow
18:00 -2.4 -5.2 81   5 26 3.2 96.12   -9 Snow Showers,Blowing Snow
19:00 -3.1 -5.3 85   4 25 4.0 96.11   -10 Snow Showers,Blowing Snow
20:00 -3.8 -6.1 84   5 23 4.8 96.11   -11 Snow,Blowing Snow
21:00 -4.0 -6.5 83   4 27 8.1 96.14   -11 Snow,Blowing Snow
22:00 -4.2 -7.3 79   6 21 19.3 96.09   -11 Snow,Blowing Snow
23:00 -4.3 -7.6 78   5 20 19.3 96.03   -11 Snow,Blowing Snow

Notes on Data Quality.

Legend

  • E = Estimated
  • M = Missing
  • NA = Not Available*
  • [empty] = Indicates an unobserved value
Date modified: